Location: Alladorf
(49.9620°N, 11.3790°E)
Time: 20:30:55
(UTC+00:00)

Cosmos 1680 Rocket - Pass Details

Date: 29 November 2020
Orbit: 760 x 781 km, 74.1° (Epoch: 24 January)

Event Time Altitude Azimuth Distance (km) Brightness Sun altitude
Exits shadow 04:19:44 48° 321° (NW) 1,017 3.8 -23.1°
Maximum altitude 04:21:13 75° 250° (WSW) 813 3.4 -22.9°
Drops below altitude 10° 04:26:30 10° 165° (SSE) 2,328 6.3 -22.1°
Sets 04:28:52 0° 164° (SSE) 3,249 7.1 -21.7°
